Time,TemperatureF,DewpointF,PressureIn,WindDirection,WindDirectionDegrees,WindSpeedMPH,WindSpeedGustMPH,Humidity,HourlyPrecipIn,Conditions,Clouds,dailyrainin,SolarRadiationWatts/m^2,SoftwareType,DateUTC
2013-08-05 00:02:00,78.0,73.0,-100.00,WNW,291,1.0,3.0,86,0.00,,,0.00,0.000000,,2013-08-05 04:02:00,
2013-08-05 00:12:00,78.0,73.0,-100.00,WNW,291,1.0,3.0,86,0.00,,,0.00,0.000000,,2013-08-05 04:12:00,
2013-08-05 00:22:00,78.0,73.0,-100.00,WNW,291,1.0,3.0,86,0.00,,,0.00,0.000000,,2013-08-05 04:22:00,
2013-08-05 00:32:00,78.0,73.0,-100.00,WNW,291,1.0,3.0,86,0.00,,,0.00,0.000000,,2013-08-05 04:32:00,
2013-08-05 01:02:00,77.0,74.0,-100.00,WSW,241,1.0,3.0,89,0.00,,,0.00,0.000000,,2013-08-05 05:02:00,
2013-08-05 01:12:00,77.0,74.0,-100.00,WSW,241,1.0,3.0,89,0.00,,,0.00,0.000000,,2013-08-05 05:12:00,
2013-08-05 01:22:00,77.0,74.0,-100.00,WSW,241,1.0,3.0,89,0.00,,,0.00,0.000000,,2013-08-05 05:22:00,
2013-08-05 01:32:00,77.0,74.0,-100.00,WSW,241,1.0,3.0,89,0.00,,,0.00,0.000000,,2013-08-05 05:32:00,
2013-08-05 02:12:00,76.0,73.0,-100.00,NNW,329,1.0,2.0,91,0.00,,,0.00,0.000000,,2013-08-05 06:12:00,
2013-08-05 02:22:00,76.0,73.0,-100.00,NNW,329,1.0,2.0,91,0.00,,,0.00,0.000000,,2013-08-05 06:22:00,
2013-08-05 02:32:00,76.0,73.0,-100.00,NNW,329,1.0,2.0,91,0.00,,,0.00,0.000000,,2013-08-05 06:32:00,
2013-08-05 03:12:00,75.0,72.0,-100.00,WNW,289,1.0,2.0,91,-99.99,,,0.00,0.000000,,2013-08-05 07:12:00,
2013-08-05 03:22:00,75.0,72.0,-100.00,WNW,289,1.0,2.0,91,-99.99,,,0.00,0.000000,,2013-08-05 07:22:00,
2013-08-05 03:32:00,75.0,72.0,-100.00,WNW,289,1.0,2.0,91,-99.99,,,0.00,0.000000,,2013-08-05 07:32:00,
2013-08-05 08:08:00,76.0,74.0,-100.00,SSE,155,2.0,2.0,94,-99.99,,,0.00,30.000000,,2013-08-05 12:08:00,
2013-08-05 08:17:00,76.0,74.0,-100.00,SSE,155,2.0,2.0,94,-99.99,,,0.00,30.000000,,2013-08-05 12:17:00,
2013-08-05 08:28:00,76.0,74.0,-100.00,SSE,155,2.0,2.0,94,-99.99,,,0.00,30.000000,,2013-08-05 12:28:00,
2013-08-05 08:33:00,76.0,74.0,-100.00,SSE,155,2.0,2.0,94,-99.99,,,0.00,30.000000,,2013-08-05 12:33:00,
2013-08-05 08:38:00,85.0,76.0,-100.00,WNW,285,3.0,5.0,75,0.00,,,0.00,179.000000,,2013-08-05 12:38:00,
2013-08-05 09:03:00,85.0,76.0,-100.00,WNW,285,3.0,5.0,75,0.00,,,0.00,179.000000,,2013-08-05 13:03:00,
2013-08-05 09:13:00,85.0,76.0,-100.00,WNW,285,3.0,5.0,75,0.00,,,0.00,179.000000,,2013-08-05 13:13:00,
2013-08-05 09:38:00,89.0,75.0,-100.00,North,7,3.0,7.0,63,0.00,,,0.00,387.000000,,2013-08-05 13:38:00,
2013-08-05 10:06:00,89.0,75.0,-100.00,North,7,3.0,7.0,63,0.00,,,0.00,387.000000,,2013-08-05 14:06:00,
2013-08-05 10:17:00,89.0,75.0,-100.00,North,7,3.0,7.0,63,0.00,,,0.00,387.000000,,2013-08-05 14:17:00,
2013-08-05 10:38:00,90.0,74.0,-100.00,WNW,288,5.0,9.0,60,0.00,,,0.00,564.000000,,2013-08-05 14:38:00,
2013-08-05 11:08:00,90.0,74.0,-100.00,WNW,288,5.0,9.0,60,0.00,,,0.00,564.000000,,2013-08-05 15:08:00,
2013-08-05 11:16:00,90.0,74.0,-100.00,WNW,288,5.0,9.0,60,0.00,,,0.00,564.000000,,2013-08-05 15:16:00,
2013-08-05 11:25:00,90.0,74.0,-100.00,WNW,288,5.0,9.0,60,0.00,,,0.00,564.000000,,2013-08-05 15:25:00,
2013-08-05 12:18:00,91.0,73.0,-100.00,WNW,296,4.0,8.0,56,0.00,,,0.00,725.000000,,2013-08-05 16:18:00,
2013-08-05 12:27:00,91.0,73.0,-100.00,WNW,296,4.0,8.0,56,0.00,,,0.00,725.000000,,2013-08-05 16:27:00,
2013-08-05 12:33:00,91.0,73.0,-100.00,WNW,296,4.0,8.0,56,0.00,,,0.00,725.000000,,2013-08-05 16:33:00,
2013-08-05 12:38:00,92.0,74.0,-100.00,WNW,300,5.0,10.0,56,0.00,,,0.00,831.000000,,2013-08-05 16:38:00,
2013-08-05 13:08:00,92.0,74.0,-100.00,WNW,300,5.0,10.0,56,0.00,,,0.00,831.000000,,2013-08-05 17:08:00,
2013-08-05 13:16:00,92.0,74.0,-100.00,WNW,300,5.0,10.0,56,0.00,,,0.00,831.000000,,2013-08-05 17:16:00,
2013-08-05 13:22:00,92.0,74.0,-100.00,WNW,300,5.0,10.0,56,0.00,,,0.00,831.000000,,2013-08-05 17:22:00,
2013-08-05 13:38:00,91.0,73.0,-100.00,WNW,299,5.0,10.0,55,0.00,,,0.00,867.000000,,2013-08-05 17:38:00,
2013-08-05 14:08:00,91.0,73.0,-100.00,WNW,299,5.0,10.0,55,0.00,,,0.00,867.000000,,2013-08-05 18:08:00,
2013-08-05 14:13:00,91.0,73.0,-100.00,WNW,299,5.0,10.0,55,0.00,,,0.00,867.000000,,2013-08-05 18:13:00,
2013-08-05 14:26:00,91.0,73.0,-100.00,WNW,299,5.0,10.0,55,0.00,,,0.00,867.000000,,2013-08-05 18:26:00,
2013-08-05 14:38:00,88.0,73.0,-100.00,WNW,286,5.0,9.0,62,0.00,,,0.00,306.000000,,2013-08-05 18:38:00,
2013-08-05 15:05:00,88.0,73.0,-100.00,WNW,286,5.0,9.0,62,0.00,,,0.00,306.000000,,2013-08-05 19:05:00,
2013-08-05 15:14:00,88.0,73.0,-100.00,WNW,286,5.0,9.0,62,0.00,,,0.00,306.000000,,2013-08-05 19:14:00,
2013-08-05 15:38:00,92.0,70.0,-100.00,WNW,289,7.0,11.0,49,0.00,,,0.00,663.000000,,2013-08-05 19:38:00,
2013-08-05 16:09:00,92.0,70.0,-100.00,WNW,289,7.0,11.0,49,0.00,,,0.00,663.000000,,2013-08-05 20:09:00,
2013-08-05 16:15:00,92.0,70.0,-100.00,WNW,289,7.0,11.0,49,0.00,,,0.00,663.000000,,2013-08-05 20:15:00,
2013-08-05 16:28:00,92.0,70.0,-100.00,WNW,289,7.0,11.0,49,0.00,,,0.00,663.000000,,2013-08-05 20:28:00,
2013-08-05 17:09:00,87.0,70.0,-100.00,NW,305,5.0,10.0,58,0.00,,,0.00,326.000000,,2013-08-05 21:09:00,
2013-08-05 17:26:00,87.0,70.0,-100.00,NW,305,5.0,10.0,58,0.00,,,0.00,326.000000,,2013-08-05 21:26:00,
2013-08-05 17:34:00,87.0,70.0,-100.00,NW,305,5.0,10.0,58,0.00,,,0.00,326.000000,,2013-08-05 21:34:00,
2013-08-05 18:05:00,90.0,72.0,-100.00,WNW,293,6.0,10.0,56,0.00,,,0.00,300.000000,,2013-08-05 22:05:00,
2013-08-05 18:15:00,90.0,72.0,-100.00,WNW,293,6.0,10.0,56,0.00,,,0.00,300.000000,,2013-08-05 22:15:00,
2013-08-05 18:27:00,90.0,72.0,-100.00,WNW,293,6.0,10.0,56,0.00,,,0.00,300.000000,,2013-08-05 22:27:00,
2013-08-05 18:37:00,90.0,72.0,-100.00,WNW,293,6.0,10.0,56,0.00,,,0.00,300.000000,,2013-08-05 22:37:00,
2013-08-05 19:07:00,86.0,74.0,-100.00,WNW,296,5.0,9.0,68,0.00,,,0.00,175.000000,,2013-08-05 23:07:00,
2013-08-05 19:17:00,86.0,74.0,-100.00,WNW,296,5.0,9.0,68,0.00,,,0.00,175.000000,,2013-08-05 23:17:00,
2013-08-05 19:27:00,86.0,74.0,-100.00,WNW,296,5.0,9.0,68,0.00,,,0.00,175.000000,,2013-08-05 23:27:00,
2013-08-05 19:33:00,86.0,74.0,-100.00,WNW,296,5.0,9.0,68,0.00,,,0.00,175.000000,,2013-08-05 23:33:00,
2013-08-05 20:03:00,85.0,75.0,-100.00,WNW,300,4.0,8.0,71,0.00,,,0.00,57.000000,,2013-08-06 00:03:00,
2013-08-05 20:15:00,85.0,75.0,-100.00,WNW,300,4.0,8.0,71,0.00,,,0.00,57.000000,,2013-08-06 00:15:00,
2013-08-05 20:24:00,85.0,75.0,-100.00,WNW,300,4.0,8.0,71,0.00,,,0.00,57.000000,,2013-08-06 00:24:00,
2013-08-05 20:37:00,85.0,75.0,-100.00,WNW,300,4.0,8.0,71,0.00,,,0.00,57.000000,,2013-08-06 00:37:00,
2013-08-05 20:38:00,83.0,73.0,-100.00,WNW,300,4.0,8.0,72,0.00,,,0.00,5.000000,,2013-08-06 00:38:00,
2013-08-05 21:10:00,83.0,73.0,-100.00,WNW,300,4.0,8.0,72,0.00,,,0.00,5.000000,,2013-08-06 01:10:00,
2013-08-05 21:28:00,83.0,73.0,-100.00,WNW,300,4.0,8.0,72,0.00,,,0.00,5.000000,,2013-08-06 01:28:00,
2013-08-05 22:10:00,84.0,74.0,-100.00,NW,311,4.0,9.0,73,0.00,,,0.00,0.000000,,2013-08-06 02:10:00,
2013-08-05 22:15:00,84.0,74.0,-100.00,NW,311,4.0,9.0,73,0.00,,,0.00,0.000000,,2013-08-06 02:15:00,
2013-08-05 22:27:00,84.0,74.0,-100.00,NW,311,4.0,9.0,73,0.00,,,0.00,0.000000,,2013-08-06 02:27:00,
2013-08-05 22:32:00,84.0,74.0,-100.00,NW,311,4.0,9.0,73,0.00,,,0.00,0.000000,,2013-08-06 02:32:00,
2013-08-05 23:26:00,83.0,74.0,-100.00,WNW,303,4.0,9.0,75,0.00,,,0.00,0.000000,,2013-08-06 03:26:00,
2013-08-05 23:35:00,83.0,74.0,-100.00,WNW,303,4.0,9.0,75,0.00,,,0.00,0.000000,,2013-08-06 03:35:00,